SCP
0 0 0 0 0 0 0 -0 0 0 0 0 0 0 0 0 0 0 -0 -0 -0 -0 -0 -0 -0 0 0 -0 -0 0 -0 -0 0 0 -0 -0 -0 -0 -0 -0 -0 -0 -0 -0 -0 -0 -0 0 0
0 0 0 0 0 0 0 0 0 0 0 0 0 0 0 0 0 0 -0 -0 -0 -0 -0 -0 0 0 0 -0 -0 -0 0 -0 -0 -0 -0 -0 -0 -0 -0 -0 -0 0 0 0 -0 0 0 0 0
0 0 0 0 0 0 0 0 0 0 0 0 0 0 0 0 -0 0 -0 -0 -0 -0 -0 -0 -0 -0 -0 -0 0 -0 -0 -0 0 0 0 0 -0 -0 -0 -0 -0 -0 -0 -0 -0 0 0 0 0
0 0 0 0 0 0 0 0 -0 0 0 0 0 0 0 -0 0 0 -0 -0 -0 -0 -0 -0 -0 -0 -0 -0 -0 -0 0 0 0 0 0 -0 -0 -0 -0 0 -0 -0 -0 -0 -0 0 0 0 0
0 0 0 0 0 0 0 0 0 -0 0 0 0 0 0 0 0 -0 0 0 -0 -0 -0 -0 -0 -0 -0 -0 -0 -0 0 0 0 0 0 0 0 -0 -0 -0 0 0 0 0 0 0 0 0 0
0 0 0 0 0 0 0 0 0 0 0 0 0 0 0 0 0 0 0 0 0 0 0 0 0 0 0 0 0 0 0 0 0 0 0 0 0 0 0 0 0 0 0 0 0 0 0 0 0
0 0 0 0 0 0 0 0 0 0 0 0 0 0 0 0 0 0 0 0 0 0 0 0 0 0 0 0 0 0 0 0 0 0 0 0 0 0 0 0 0 0 0 0 0 0 0 0 0
0 0 0 0 0 0 0 0 0 0 0 0 0 0 0 0 0 0 0 0 0 0 0 0 0 0 0 0 0 0 0 0 0 0 0 0 0 0 0 0 0 0 0 0 0 0 0 0 0
0 0 0 0 0 0 0 0 0 0 0 0 0 0 0 0 0 0 0 0 0 0 0 0 0 0 0 0 0 0 0 0 0 0 0 -0 0 0 0 0 0 0 0 0 0 0 0 0 0
0 0 0 0 0 0 0 0 0 0 0 0 0 0 0 0 0 0 0 0 0 0 0 0 0 0 0 0 0 0 0 0 0 0 0 0 0 0 0 0 0 0 0 0 0 0 0 0 0
0 0 0 0 0 0 0 0 0 0 0 0 0 0 0 0 0 0 0 0 0 0 0 0 0 0 0 0 0 0 0 0 0 0 0 0 0 0 0 0 0 0 0 0 0 0 0 0 0
0 0 0 0 0 0 0 0 0 0 0 0 0 0 0 0 0 0 0 0 0 0 0 0 0 0 0 0 0 0 0 0 0 0 0 0 0 0 0 0 0 0 0 0 0 0 0 0 0
0 0 0 0 0 0 0 0 0 0 0 0 0 0 0 0 0 0 0 0 0 0 0 0 0 0 0 0 0 0 0 0 0 0 0 0 0 0 0 0 0 0 0 0 0 0 0 0 0
0 0 0 0 0 0 0 0 0 0 0 0 0 0 0 0 0 0 0 0 0 0 0 0 0 0 0 0 0 0 0 0 0 0 0 0 0 0 0 0 0 0 0 0 0 0 0 0 0
0 0 0 0 0 0 0 0 0 0 0 0 0 0 0 0 0 0 0 0 0 0 0 0 0 0 0 0 0 0 0 0 0 0 0 0 0 0 0 0 0 0 0 0 0 0 0 0 0
0 0 0 0 0 0 0 0 0 0 0 0 0 0 0 0 0 0 0 0 0 0 0 0 0 0 0 0 0 0 0 0 0 0 0 0 0 0 0 0 0 0 0 0 0 0 0 0 0
0 0 0 0 0 0 0 0 0 0 0 0 0 0 0 0 0 0 0 0 0 0 0 0 0 0 0 0 0 0 0 0 0 0 0 0 0 0 0 0 0 0 0 0 0 0 0 0 0
0 0 0 0 0 0 0 0 0 0 0 0 0 0 0 0 0 0 0 0 0 0 0 0 0 0 0 0 0 0 0 0 0 0 0 0 0 0 0 0 0 0 0 0 0 0 0 0 0
0 0 0 0 0 0 0 0 0 0 0 0 0 0 0 0 0 0 0 0 0 0 0 0 0 0 0 0 0 0 0 0 0 0 0 0 0 0 0 0 0 0 0 0 0 0 0 0 0
0 0 0 0 0 0 0 0 0 0 0 0 0 0 0 0 0 0 0 0 0 0 0 0 0 0 0 0 0 0 0 0 0 0 0 0 0 0 0 0 0 0 0 0 0 0 0 0 0
0 0 0 0 0 0 0 0 0 0 0 0 0 0 0 0 0 0 0 0 0 0 0 0 0 0 0 0 0 0 0 0 0 0 0 0 0 0 0 0 0 0 0 0 0 0 0 0 0
0 0 0 0 0 0 0 0 0 0 0 0 0 0 0 0 0 0 0 0 0 0 0 0 0 0 0 0 0 0 0 0 0 0 0 0 0 0 0 0 0 0 0 0 0 0 0 0 0
0 0 0 0 0 0 0 0 0 0 0 0 0 0 0 0 0 0 0 0 0 0 0 0 0 0 0 0 0 0 0 0 0 0 0 0 0 0 0 0 0 0 0 0 0 0 0 0 0
0 0 0 0 0 0 0 0 0 0 0 0 0 0 0 0 0 0 0 0 0 0 0 0 0 0 0 0 0 0 0 0 0 0 0 0 0 0 0 0 0 0 0 0 0 0 0 0 0
0 0 0 0 0 0 0 0 0 0 0 0 0 0 0 0 0 0 0 0 0 0 0 0 0 0 -0 -0 0 0 0 0 0 0 0 0 0 0 0 0 0 0 0 0 0 0 0 0 0
0 0 0 0 0 0 0 0 0 0 0 0 0 0 0 0 0 0 0 0 0 0 -0 0 0 0 0 0 0 0 0 0 0 0 0 0 0 0 0 0 0 0 0 0 0 0 0 0 0
0 0 0 0 0 0 0 0 0 0 0 0 0 0 0 0 0 0 0 0 0 0 0 0 0 0 0 0 0 0 0 0 0 0 0 0 0 0 0 0 0 0 0 0 0 0 0 0 0
0 0 0 0 0 0 0 0 0 0 0 0 0 0 0 0 0 0 -0 -0 -0 -0 -0 0 0 0 0 0 0 0 0 0 0 0 0 0 0 0 0 0 0 0 0 0 0 0 0 0 0
0 0 0 0 0 0 0 0 0 0 0 0 0 0 0 0 -0 -0 -0 -0 -0 -0 0 0 0 0 0 0 0 0 0 0 0 0 0 0 0 0 0 0 0 0 0 0 0 0 0 0 0
0 0 0 0 0 0 0 0 0 0 0 0 0 0 0 0 -0 -0 0 0 0 0 0 0 0 0 0 0 0 0 0 0 0 0 0 0 0 0 0 0 0 0 0 0 0 0 0 0 0
Wind_Speed_500mb
8 9 1 7 9 11 20 9 4 15 15 7 18 3 12 24 15 8 28 25 31 26 19 16 9 14 17 21 19 18 20 21 22 23 23 21 19 18 22 18 19 20 21 21 22 18 21 23 24
13 4 2 9 9 19 15 13 15 17 18 23 18 13 7 12 13 24 28 30 28 25 22 15 8 11 17 19 18 17 18 21 22 22 21 17 18 20 16 20 20 20 21 19 16 19 23 24 26
12 2 11 8 12 20 17 17 21 20 24 20 9 10 7 8 22 26 29 34 29 24 20 14 6 10 16 21 22 19 19 21 21 21 18 16 18 18 19 17 17 16 14 17 13 19 22 28 23
14 9 11 10 22 5 7 16 32 25 14 9 11 17 17 13 21 20 37 31 26 23 18 12 3 10 16 22 22 19 19 20 20 21 18 15 11 12 17 16 12 11 11 11 11 18 20 17 16
9 11 15 17 16 5 7 23 36 27 19 18 8 12 23 18 20 34 34 27 23 19 14 11 1 6 14 18 19 14 16 16 17 18 17 15 10 11 12 10 13 9 10 10 13 17 18 16 19
8 9 15 21 19 8 15 25 25 22 22 15 16 23 16 17 31 31 29 25 21 19 16 9 4 5 12 18 15 11 13 15 17 19 19 16 14 12 10 11 10 6 9 12 13 13 14 19 22
8 11 22 26 21 16 16 22 21 19 21 17 22 12 13 26 32 31 27 22 21 19 12 6 2 7 13 20 13 12 13 15 18 21 22 18 15 13 10 9 8 5 8 11 10 8 10 19 23
6 7 6 11 21 12 25 21 10 21 20 15 10 9 13 41 43 32 26 23 23 18 11 4 6 11 18 17 12 12 13 15 19 22 23 20 17 13 9 3 5 2 6 7 7 3 9 15 17
3 10 17 16 22 16 30 17 12 3 15 12 9 7 10 50 45 34 29 25 20 16 10 8 7 11 19 17 13 12 14 16 19 21 21 20 17 16 14 6 2 3 2 2 0 7 8 13 13
6 16 18 6 9 16 35 22 22 14 19 11 15 9 30 51 45 37 32 28 24 19 13 11 11 14 18 16 14 15 17 18 19 20 20 20 17 15 12 7 2 7 7 5 3 0 4 8 6
6 8 9 5 3 19 31 20 14 13 14 10 18 22 31 44 41 34 32 27 22 21 17 13 14 16 18 15 13 13 16 19 20 21 22 21 20 17 13 9 6 7 8 10 4 1 9 12 14
2 4 7 6 6 19 24 25 15 17 10 3 2 25 33 43 44 36 31 26 25 20 19 17 18 18 15 17 14 16 18 20 22 23 23 24 21 17 12 6 7 5 10 8 8 14 11 12 10
5 2 4 6 13 14 18 13 8 15 4 6 14 22 30 37 41 32 28 25 28 24 23 19 21 20 18 16 17 17 19 22 24 25 26 24 20 18 14 9 2 7 10 10 17 12 13 11 8
12 1 11 8 12 12 14 10 9 8 6 13 19 18 22 35 38 33 28 26 26 27 24 23 23 21 21 21 20 23 22 25 27 28 28 26 22 18 16 10 6 8 15 16 14 15 10 13 10
28 10 12 10 4 7 5 9 9 9 11 16 16 18 24 29 36 37 29 25 24 25 33 27 28 28 26 26 28 29 30 30 32 33 33 30 27 24 17 11 5 13 17 21 22 23 21 19 18
6 8 9 7 2 3 5 16 13 8 12 13 16 16 18 26 33 34 30 26 24 25 36 33 33 33 32 31 30 32 37 35 34 35 37 36 31 27 21 15 9 13 17 20 30 30 29 28 26
7 9 17 11 2 6 6 14 10 4 10 14 15 17 19 22 27 30 33 34 28 33 34 39 36 38 36 37 38 40 40 37 38 39 36 42 36 29 20 19 16 16 16 23 30 39 36 37 32
11 18 18 19 5 3 5 3 9 6 8 11 13 18 19 21 24 26 29 29 30 39 41 43 42 42 42 45 48 48 47 43 44 42 39 41 39 29 22 21 22 20 21 24 31 43 42 44 41
18 17 20 14 7 4 3 5 12 12 11 18 20 20 18 17 19 23 27 32 36 42 42 42 43 44 47 48 48 48 51 48 47 43 42 40 41 36 28 25 25 24 26 25 35 41 44 51 47
13 25 11 11 7 4 5 13 14 20 13 15 17 17 17 17 19 22 25 29 33 38 43 46 45 44 46 46 46 44 43 47 47 45 44 43 37 36 35 34 30 28 28 29 38 49 46 55 56
10 13 16 10 9 5 4 12 15 23 30 30 30 22 18 17 14 11 15 21 25 27 31 34 39 40 36 42 40 44 52 50 50 51 50 45 41 38 39 39 38 35 35 37 37 48 50 55 53
11 11 15 18 12 5 7 9 14 18 24 29 27 25 22 22 18 17 16 15 13 17 27 31 36 40 42 48 46 47 51 48 50 49 45 45 43 44 47 46 45 42 39 42 44 50 53 54 63
12 11 16 8 3 9 9 3 13 5 21 26 35 38 33 27 28 39 47 45 43 40 26 19 29 38 42 46 46 46 50 49 46 48 53 49 49 51 52 52 51 49 46 45 48 52 57 60 64
23 19 14 5 2 3 4 4 9 5 14 22 29 33 35 37 39 44 49 48 49 48 44 37 29 21 23 35 42 48 50 50 50 52 58 56 54 57 59 57 56 54 52 50 53 54 60 64 66
3 6 5 4 3 3 3 3 12 19 25 23 21 25 29 34 36 40 42 41 39 35 35 35 34 28 23 22 29 40 48 52 56 56 59 64 62 60 61 61 61 60 59 56 55 59 61 67 72
6 5 3 3 7 8 4 9 11 17 20 11 12 17 24 28 32 31 37 39 36 31 26 27 31 31 30 30 32 37 44 52 58 59 62 63 68 65 61 63 64 65 64 64 62 64 65 67 73
4 1 4 9 2 2 6 10 6 15 18 9 9 13 15 25 29 29 29 32 30 29 27 30 33 33 37 39 40 43 47 52 56 61 64 67 69 71 68 67 66 69 70 71 70 69 67 68 72
7 6 3 1 6 5 7 7 11 30 32 16 9 6 12 21 24 21 21 26 30 33 35 37 37 38 40 42 44 47 51 54 58 63 68 70 70 71 74 69 67 69 74 74 74 75 70 72 72
3 1 3 3 4 4 2 5 17 34 31 20 7 2 16 23 25 18 20 26 26 27 32 37 41 43 45 48 50 52 53 54 57 62 66 70 74 76 77 79 73 71 72 74 78 79 75 75 75
5 4 8 5 8 1 2 8 11 26 35 15 5 3 19 18 20 19 21 22 23 29 38 41 43 47 52 57 60 61 61 60 58 58 59 62 69 75 78 79 82 80 76 75 79 82 80 79 78
Wind_Direction_500mb
341 345 179 219 225 237 214 163 50 138 138 97 120 91 70 31 8 46 139 141 143 157 158 130 82 18 12 21 20 17 13 14 14 15 15 31 46 50 69 51 39 29 38 31 49 43 44 51 67
346 23 210 237 247 201 210 131 175 149 118 135 112 114 92 80 66 126 140 144 145 147 134 130 88 19 14 18 17 14 13 13 10 14 16 40 47 53 64 53 46 32 45 35 43 47 49 60 66
334 225 239 226 222 230 206 174 132 127 138 155 112 55 73 77 120 131 148 147 152 135 147 134 91 13 6 7 7 11 10 9 9 16 17 35 49 51 41 65 55 49 45 43 24 47 57 65 65
350 200 234 243 216 82 36 151 144 141 149 164 132 97 88 108 128 146 148 143 140 135 165 143 100 0 356 358 0 5 8 8 9 13 20 27 48 65 65 50 67 41 37 70 19 49 65 80 90
327 255 225 226 222 84 192 140 155 153 153 153 159 111 113 128 129 146 144 149 144 145 167 165 146 331 341 349 353 2 6 5 5 10 15 22 27 58 77 64 76 31 26 50 51 59 66 78 90
292 273 221 199 184 158 135 154 163 158 149 137 135 125 121 145 146 148 151 152 147 155 164 169 198 310 323 336 346 359 0 359 3 8 10 18 26 40 76 72 75 31 37 59 62 59 75 98 103
264 254 238 210 165 166 163 166 171 162 161 161 141 127 127 155 158 154 153 153 150 154 169 169 245 306 325 337 342 352 358 1 2 5 9 13 19 23 34 90 81 2 33 79 61 61 92 111 111
265 261 244 204 190 160 162 162 161 171 141 129 162 173 165 170 162 159 157 154 160 168 180 190 276 322 330 336 336 349 358 0 1 6 11 13 14 12 11 16 104 13 47 103 103 41 82 112 117
257 248 214 195 197 147 165 160 156 195 138 163 159 92 130 175 166 161 168 168 182 194 212 234 265 307 323 327 333 345 355 359 3 6 9 11 9 358 354 1 220 197 324 130 122 47 92 131 141
259 241 213 47 66 168 173 180 155 162 159 178 167 108 156 169 168 172 176 179 191 211 227 246 268 296 316 327 335 346 351 357 357 0 3 2 1 360 360 355 289 261 270 301 327 348 136 155 186
217 261 100 109 186 168 160 161 167 175 184 190 204 175 167 174 174 183 187 193 209 218 233 247 265 293 311 326 333 340 344 347 351 355 357 356 357 1 2 348 320 303 289 311 277 164 216 209 208
185 274 336 136 120 152 164 147 164 188 67 117 205 183 175 182 182 191 195 196 199 227 237 244 260 286 309 326 336 338 342 346 347 347 351 352 350 352 352 345 310 268 249 231 235 251 245 236 236
34 8 68 121 125 134 136 146 124 162 94 162 149 165 181 189 193 196 204 205 228 232 240 247 258 280 297 319 322 330 334 340 340 341 344 345 340 337 338 332 301 262 253 251 252 254 242 237 219
159 12 130 133 128 122 147 135 168 152 146 145 166 180 193 201 199 200 207 210 212 230 240 249 263 280 293 300 307 318 323 328 331 334 337 336 334 331 321 322 315 292 248 238 258 238 233 216 216
127 120 187 114 81 95 129 156 185 131 155 164 183 192 194 209 209 212 217 219 225 228 235 241 262 276 284 299 304 308 317 322 325 327 326 327 330 323 310 308 305 268 263 241 244 244 266 272 277
204 185 178 102 178 83 239 157 127 162 180 192 196 206 216 218 219 219 222 228 230 235 243 246 254 268 271 276 286 290 301 308 308 315 324 320 323 323 305 294 273 257 272 251 249 260 261 265 271
205 170 178 136 77 132 243 103 128 173 217 232 224 222 225 231 228 231 232 236 234 241 250 254 256 258 264 268 277 283 288 297 297 303 311 317 314 318 300 284 267 263 258 251 253 249 253 256 258
162 161 158 143 125 188 146 199 137 189 228 255 257 247 239 242 245 243 245 238 237 246 253 254 262 265 269 273 276 276 283 290 289 291 300 306 311 313 313 286 274 265 245 262 246 255 253 251 247
145 135 123 100 83 249 188 311 320 300 262 278 272 268 265 263 265 259 249 245 245 249 251 260 264 262 264 268 269 277 277 280 285 287 292 295 306 303 306 303 285 272 256 240 258 255 258 256 243
129 117 101 96 77 294 77 27 57 36 13 340 318 308 301 290 279 269 260 257 253 254 258 260 259 263 266 267 272 274 280 283 285 286 288 285 289 298 302 305 302 280 263 253 242 255 254 251 250
39 147 151 122 125 92 333 88 76 80 62 57 60 56 42 29 5 326 283 274 269 267 268 261 262 260 259 266 269 274 278 283 284 286 283 280 280 285 288 291 297 297 271 256 245 254 250 252 254
115 69 109 127 173 168 348 132 88 110 67 40 34 39 33 25 20 14 19 5 325 288 264 263 264 266 262 261 267 270 278 280 285 282 279 280 271 274 280 282 286 289 281 260 252 249 250 248 249
113 101 92 88 139 174 31 129 137 175 53 58 61 52 44 43 48 58 60 52 43 37 17 325 287 271 268 265 265 264 267 273 272 269 272 278 274 269 270 273 279 280 284 266 254 248 249 246 243
126 104 85 92 237 135 52 318 143 66 102 87 66 57 58 63 64 60 52 45 37 31 28 27 20 352 304 281 272 267 269 271 271 273 273 279 278 273 270 271 274 275 278 275 260 253 252 254 246
103 165 113 138 155 80 45 275 76 113 119 91 76 63 68 67 56 42 33 27 22 17 13 9 6 3 349 316 289 277 275 275 275 275 271 279 280 278 277 277 276 275 279 281 273 262 257 254 253
59 337 322 168 167 131 182 153 135 124 137 107 77 84 73 49 34 26 14 12 11 11 9 6 359 346 337 323 307 292 284 282 283 282 280 279 283 284 282 275 274 273 273 274 276 268 261 258 254
96 47 8 96 36 220 126 107 125 184 177 184 126 104 53 21 17 11 11 7 7 6 0 348 338 329 322 315 308 302 297 290 286 286 286 284 284 286 286 281 276 275 273 273 273 273 270 264 261
5 89 153 319 145 185 151 218 161 188 190 193 148 101 16 8 9 11 16 8 0 351 343 338 333 328 322 317 315 310 304 298 294 291 287 283 285 285 287 286 281 276 276 274 273 274 277 273 268
154 284 10 60 352 170 193 222 156 182 182 188 154 358 3 1 4 7 5 3 4 2 1 356 349 343 338 335 331 326 320 313 305 299 295 291 289 286 285 286 285 280 274 273 272 272 273 273 271
280 226 213 219 190 194 8 259 162 174 181 171 199 287 344 355 12 15 4 4 4 358 355 352 348 341 335 330 327 326 326 324 320 316 311 303 295 290 285 283 284 283 278 273 269 269 269 270 270
Wind_Speed_850mb
8 9 1 7 9 11 20 9 4 15 15 7 18 3 12 24 15 8 28 25 31 26 19 16 9 14 17 21 19 18 20 21 22 23 23 21 19 18 22 18 19 20 21 21 22 18 21 23 24
13 4 2 9 9 19 15 13 15 17 18 23 18 13 7 12 13 24 28 30 28 25 22 15 8 11 17 19 18 17 18 21 22 22 21 17 18 20 16 20 20 20 21 19 16 19 23 24 26
12 2 11 8 12 20 17 17 21 20 24 20 9 10 7 8 22 26 29 34 29 24 20 14 6 10 16 21 22 19 19 21 21 21 18 16 18 18 19 17 17 16 14 17 13 19 22 28 23
14 9 11 10 22 5 7 16 32 25 14 9 11 17 17 13 21 20 37 31 26 23 18 12 3 10 16 22 22 19 19 20 20 21 18 15 11 12 17 16 12 11 11 11 11 18 20 17 16
9 11 15 17 16 5 7 23 36 27 19 18 8 12 23 18 20 34 34 27 23 19 14 11 1 6 14 18 19 14 16 16 17 18 17 15 10 11 12 10 13 9 10 10 13 17 18 16 19
8 9 15 21 19 8 15 25 25 22 22 15 16 23 16 17 31 31 29 25 21 19 16 9 4 5 12 18 15 11 13 15 17 19 19 16 14 12 10 11 10 6 9 12 13 13 14 19 22
8 11 22 26 21 16 16 22 21 19 21 17 22 12 13 26 32 31 27 22 21 19 12 6 2 7 13 20 13 12 13 15 18 21 22 18 15 13 10 9 8 5 8 11 10 8 10 19 23
6 7 6 11 21 12 25 21 10 21 20 15 10 9 13 41 43 32 26 23 23 18 11 4 6 11 18 17 12 12 13 15 19 22 23 20 17 13 9 3 5 2 6 7 7 3 9 15 17
3 10 17 16 22 16 30 17 12 3 15 12 9 7 10 50 45 34 29 25 20 16 10 8 7 11 19 17 13 12 14 16 19 21 21 20 17 16 14 6 2 3 2 2 0 7 8 13 13
6 16 18 6 9 16 35 22 22 14 19 11 15 9 30 51 45 37 32 28 24 19 13 11 11 14 18 16 14 15 17 18 19 20 20 20 17 15 12 7 2 7 7 5 3 0 4 8 6
6 8 9 5 3 19 31 20 14 13 14 10 18 22 31 44 41 34 32 27 22 21 17 13 14 16 18 15 13 13 16 19 20 21 22 21 20 17 13 9 6 7 8 10 4 1 9 12 14
2 4 7 6 6 19 24 25 15 17 10 3 2 25 33 43 44 36 31 26 25 20 19 17 18 18 15 17 14 16 18 20 22 23 23 24 21 17 12 6 7 5 10 8 8 14 11 12 10
5 2 4 6 13 14 18 13 8 15 4 6 14 22 30 37 41 32 28 25 28 24 23 19 21 20 18 16 17 17 19 22 24 25 26 24 20 18 14 9 2 7 10 10 17 12 13 11 8
12 1 11 8 12 12 14 10 9 8 6 13 19 18 22 35 38 33 28 26 26 27 24 23 23 21 21 21 20 23 22 25 27 28 28 26 22 18 16 10 6 8 15 16 14 15 10 13 10
28 10 12 10 4 7 5 9 9 9 11 16 16 18 24 29 36 37 29 25 24 25 33 27 28 28 26 26 28 29 30 30 32 33 33 30 27 24 17 11 5 13 17 21 22 23 21 19 18
6 8 9 7 2 3 5 16 13 8 12 13 16 16 18 26 33 34 30 26 24 25 36 33 33 33 32 31 30 32 37 35 34 35 37 36 31 27 21 15 9 13 17 20 30 30 29 28 26
7 9 17 11 2 6 6 14 10 4 10 14 15 17 19 22 27 30 33 34 28 33 34 39 36 38 36 37 38 40 40 37 38 39 36 42 36 29 20 19 16 16 16 23 30 39 36 37 32
11 18 18 19 5 3 5 3 9 6 8 11 13 18 19 21 24 26 29 29 30 39 41 43 42 42 42 45 48 48 47 43 44 42 39 41 39 29 22 21 22 20 21 24 31 43 42 44 41
18 17 20 14 7 4 3 5 12 12 11 18 20 20 18 17 19 23 27 32 36 42 42 42 43 44 47 48 48 48 51 48 47 43 42 40 41 36 28 25 25 24 26 25 35 41 44 51 47
13 25 11 11 7 4 5 13 14 20 13 15 17 17 17 17 19 22 25 29 33 38 43 46 45 44 46 46 46 44 43 47 47 45 44 43 37 36 35 34 30 28 28 29 38 49 46 55 56
10 13 16 10 9 5 4 12 15 23 30 30 30 22 18 17 14 11 15 21 25 27 31 34 39 40 36 42 40 44 52 50 50 51 50 45 41 38 39 39 38 35 35 37 37 48 50 55 53
11 11 15 18 12 5 7 9 14 18 24 29 27 25 22 22 18 17 16 15 13 17 27 31 36 40 42 48 46 47 51 48 50 49 45 45 43 44 47 46 45 42 39 42 44 50 53 54 63
12 11 16 8 3 9 9 3 13 5 21 26 35 38 33 27 28 39 47 45 43 40 26 19 29 38 42 46 46 46 50 49 46 48 53 49 49 51 52 52 51 49 46 45 48 52 57 60 64
23 19 14 5 2 3 4 4 9 5 14 22 29 33 35 37 39 44 49 48 49 48 44 37 29 21 23 35 42 48 50 50 50 52 58 56 54 57 59 57 56 54 52 50 53 54 60 64 66
3 6 5 4 3 3 3 3 12 19 25 23 21 25 29 34 36 40 42 41 39 35 35 35 34 28 23 22 29 40 48 52 56 56 59 64 62 60 61 61 61 60 59 56 55 59 61 67 72
6 5 3 3 7 8 4 9 11 17 20 11 12 17 24 28 32 31 37 39 36 31 26 27 31 31 30 30 32 37 44 52 58 59 62 63 68 65 61 63 64 65 64 64 62 64 65 67 73
4 1 4 9 2 2 6 10 6 15 18 9 9 13 15 25 29 29 29 32 30 29 27 30 33 33 37 39 40 43 47 52 56 61 64 67 69 71 68 67 66 69 70 71 70 69 67 68 72
7 6 3 1 6 5 7 7 11 30 32 16 9 6 12 21 24 21 21 26 30 33 35 37 37 38 40 42 44 47 51 54 58 63 68 70 70 71 74 69 67 69 74 74 74 75 70 72 72
3 1 3 3 4 4 2 5 17 34 31 20 7 2 16 23 25 18 20 26 26 27 32 37 41 43 45 48 50 52 53 54 57 62 66 70 74 76 77 79 73 71 72 74 78 79 75 75 75
5 4 8 5 8 1 2 8 11 26 35 15 5 3 19 18 20 19 21 22 23 29 38 41 43 47 52 57 60 61 61 60 58 58 59 62 69 75 78 79 82 80 76 75 79 82 80 79 78
Wind_Direction_850mb
341 345 179 219 225 237 214 163 50 138 138 97 120 91 70 31 8 46 139 141 143 157 158 130 82 18 12 21 20 17 13 14 14 15 15 31 46 50 69 51 39 29 38 31 49 43 44 51 67
346 23 210 237 247 201 210 131 175 149 118 135 112 114 92 80 66 126 140 144 145 147 134 130 88 19 14 18 17 14 13 13 10 14 16 40 47 53 64 53 46 32 45 35 43 47 49 60 66
334 225 239 226 222 230 206 174 132 127 138 155 112 55 73 77 120 131 148 147 152 135 147 134 91 13 6 7 7 11 10 9 9 16 17 35 49 51 41 65 55 49 45 43 24 47 57 65 65
350 200 234 243 216 82 36 151 144 141 149 164 132 97 88 108 128 146 148 143 140 135 165 143 100 0 356 358 0 5 8 8 9 13 20 27 48 65 65 50 67 41 37 70 19 49 65 80 90
327 255 225 226 222 84 192 140 155 153 153 153 159 111 113 128 129 146 144 149 144 145 167 165 146 331 341 349 353 2 6 5 5 10 15 22 27 58 77 64 76 31 26 50 51 59 66 78 90
292 273 221 199 184 158 135 154 163 158 149 137 135 125 121 145 146 148 151 152 147 155 164 169 198 310 323 336 346 359 0 359 3 8 10 18 26 40 76 72 75 31 37 59 62 59 75 98 103
264 254 238 210 165 166 163 166 171 162 161 161 141 127 127 155 158 154 153 153 150 154 169 169 245 306 325 337 342 352 358 1 2 5 9 13 19 23 34 90 81 2 33 79 61 61 92 111 111
265 261 244 204 190 160 162 162 161 171 141 129 162 173 165 170 162 159 157 154 160 168 180 190 276 322 330 336 336 349 358 0 1 6 11 13 14 12 11 16 104 13 47 103 103 41 82 112 117
257 248 214 195 197 147 165 160 156 195 138 163 159 92 130 175 166 161 168 168 182 194 212 234 265 307 323 327 333 345 355 359 3 6 9 11 9 358 354 1 220 197 324 130 122 47 92 131 141
259 241 213 47 66 168 173 180 155 162 159 178 167 108 156 169 168 172 176 179 191 211 227 246 268 296 316 327 335 346 351 357 357 0 3 2 1 360 360 355 289 261 270 301 327 348 136 155 186
217 261 100 109 186 168 160 161 167 175 184 190 204 175 167 174 174 183 187 193 209 218 233 247 265 293 311 326 333 340 344 347 351 355 357 356 357 1 2 348 320 303 289 311 277 164 216 209 208
185 274 336 136 120 152 164 147 164 188 67 117 205 183 175 182 182 191 195 196 199 227 237 244 260 286 309 326 336 338 342 346 347 347 351 352 350 352 352 345 310 268 249 231 235 251 245 236 236
34 8 68 121 125 134 136 146 124 162 94 162 149 165 181 189 193 196 204 205 228 232 240 247 258 280 297 319 322 330 334 340 340 341 344 345 340 337 338 332 301 262 253 251 252 254 242 237 219
159 12 130 133 128 122 147 135 168 152 146 145 166 180 193 201 199 200 207 210 212 230 240 249 263 280 293 300 307 318 323 328 331 334 337 336 334 331 321 322 315 292 248 238 258 238 233 216 216
127 120 187 114 81 95 129 156 185 131 155 164 183 192 194 209 209 212 217 219 225 228 235 241 262 276 284 299 304 308 317 322 325 327 326 327 330 323 310 308 305 268 263 241 244 244 266 272 277
204 185 178 102 178 83 239 157 127 162 180 192 196 206 216 218 219 219 222 228 230 235 243 246 254 268 271 276 286 290 301 308 308 315 324 320 323 323 305 294 273 257 272 251 249 260 261 265 271
205 170 178 136 77 132 243 103 128 173 217 232 224 222 225 231 228 231 232 236 234 241 250 254 256 258 264 268 277 283 288 297 297 303 311 317 314 318 300 284 267 263 258 251 253 249 253 256 258
162 161 158 143 125 188 146 199 137 189 228 255 257 247 239 242 245 243 245 238 237 246 253 254 262 265 269 273 276 276 283 290 289 291 300 306 311 313 313 286 274 265 245 262 246 255 253 251 247
145 135 123 100 83 249 188 311 320 300 262 278 272 268 265 263 265 259 249 245 245 249 251 260 264 262 264 268 269 277 277 280 285 287 292 295 306 303 306 303 285 272 256 240 258 255 258 256 243
129 117 101 96 77 294 77 27 57 36 13 340 318 308 301 290 279 269 260 257 253 254 258 260 259 263 266 267 272 274 280 283 285 286 288 285 289 298 302 305 302 280 263 253 242 255 254 251 250
39 147 151 122 125 92 333 88 76 80 62 57 60 56 42 29 5 326 283 274 269 267 268 261 262 260 259 266 269 274 278 283 284 286 283 280 280 285 288 291 297 297 271 256 245 254 250 252 254
115 69 109 127 173 168 348 132 88 110 67 40 34 39 33 25 20 14 19 5 325 288 264 263 264 266 262 261 267 270 278 280 285 282 279 280 271 274 280 282 286 289 281 260 252 249 250 248 249
113 101 92 88 139 174 31 129 137 175 53 58 61 52 44 43 48 58 60 52 43 37 17 325 287 271 268 265 265 264 267 273 272 269 272 278 274 269 270 273 279 280 284 266 254 248 249 246 243
126 104 85 92 237 135 52 318 143 66 102 87 66 57 58 63 64 60 52 45 37 31 28 27 20 352 304 281 272 267 269 271 271 273 273 279 278 273 270 271 274 275 278 275 260 253 252 254 246
103 165 113 138 155 80 45 275 76 113 119 91 76 63 68 67 56 42 33 27 22 17 13 9 6 3 349 316 289 277 275 275 275 275 271 279 280 278 277 277 276 275 279 281 273 262 257 254 253
59 337 322 168 167 131 182 153 135 124 137 107 77 84 73 49 34 26 14 12 11 11 9 6 359 346 337 323 307 292 284 282 283 282 280 279 283 284 282 275 274 273 273 274 276 268 261 258 254
96 47 8 96 36 220 126 107 125 184 177 184 126 104 53 21 17 11 11 7 7 6 0 348 338 329 322 315 308 302 297 290 286 286 286 284 284 286 286 281 276 275 273 273 273 273 270 264 261
5 89 153 319 145 185 151 218 161 188 190 193 148 101 16 8 9 11 16 8 0 351 343 338 333 328 322 317 315 310 304 298 294 291 287 283 285 285 287 286 281 276 276 274 273 274 277 273 268
154 284 10 60 352 170 193 222 156 182 182 188 154 358 3 1 4 7 5 3 4 2 1 356 349 343 338 335 331 326 320 313 305 299 295 291 289 286 285 286 285 280 274 273 272 272 273 273 271
280 226 213 219 190 194 8 259 162 174 181 171 199 287 344 355 12 15 4 4 4 358 355 352 348 341 335 330 327 326 326 324 320 316 311 303 295 290 285 283 284 283 278 273 269 269 269 270 270